71,2013-07-17 19:28:06,1374089286,55.20787,-10.10259,2,3,2013-07-17 19:26:00,1374089160,18.94,1,15.8,0,4095,55.202,-10.0746,42,48
72,2013-07-17 20:06:14,1374091574,55.18737,-10.10259,2,2,2013-07-17 20:00:00,1374091200,14.9,6,15.8,30,4095,55.202,-10.0746,42,48
73,2013-07-17 21:06:13,1374095173,55.20787,-10.10259,2,2,2013-07-17 21:00:00,1374094800,15.01,5,15.8,30,0,55.2062,-10.0638,52,44
74,2013-07-17 22:06:10,1374098770,55.20787,-10.10259,3,1,2013-07-17 22:00:00,1374098400,15,5,15.8,30,60,55.2062,-10.0638,52,44
75,2013-07-17 23:06:10,1374102370,55.1686,-9.96798,3,1,2013-07-17 23:00:00,1374102000,15,6,15.8,30,120,55.2062,-10.0638,52,44
76,2013-07-18 00:06:11,1374105971,55.21816,-9.97886,4,7,2013-07-18 00:00:00,1374105600,14.99,6,15.8,30,0,55.2034,-10.0166,82,44
77,2013-07-18 01:06:08,1374109568,55.21303,-10.04073,8,2,2013-07-18 01:00:00,1374109200,14.98,5,15.8,30,60,55.2034,-10.0166,82,44
78,2013-07-18 02:06:08,1374113168,55.1686,-9.96798,2,1,2013-07-18 02:00:00,1374112800,14.99,7,15.8,30,120,55.2034,-10.0166,82,44
79,2013-07-18 03:06:14,1374116774,55.19253,-10.04073,2,3,2013-07-18 03:00:00,1374116400,14.99,6,15.8,30,0,55.1978,-10.005,58,48
80,2013-07-18 04:06:08,1374120368,55.16348,-10.02979,2,1,2013-07-18 04:00:00,1374120000,14.99,6,15.8,30,60,55.1978,-10.005,58,48
81,2013-07-18 05:06:12,1374123972,55.21816,-9.97886,3,2,2013-07-18 05:00:00,1374123600,15,5,15.8,30,120,55.1978,-10.005,58,48
82,2013-07-18 06:06:20,1374127580,55.21816,-9.97886,2,2,2013-07-18 06:00:00,1374127200,15,6,15.8,30,0,55.2048,-10.0166,34,44
83,2013-07-18 07:06:08,1374131168,55.21303,-10.04073,2,1,2013-07-18 07:00:00,1374130800,15.02,6,15.8,30,60,55.2048,-10.0166,34,44
84,2013-07-18 08:06:08,1374134768,55.19253,-10.04073,6,1,2013-07-18 08:00:00,1374134400,15.04,6,15.8,30,120,55.2048,-10.0166,34,44
85,2013-07-18 09:06:08,1374138368,55.19253,-10.04073,3,1,2013-07-18 09:00:00,1374138000,15.06,5,15.8,30,0,55.2186,-10.016,34,48
86,2013-07-18 10:06:12,1374141972,55.20159,-12.80148,192,2,2013-07-18 10:00:00,1374141600,15.11,5,15.8,30,60,55.2186,-10.016,34,48
87,2013-07-18 11:06:09,1374145569,55.21816,-9.97886,2,2,2013-07-18 11:00:00,1374145200,15.14,4,15.8,30,120,55.2186,-10.016,34,48
88,2013-07-18 12:06:12,1374149172,55.24153,-10.75488,96,4,2013-07-18 12:00:00,1374148800,15.17,5,15.8,30,0,55.229,-9.98319999999998,34,48
89,2013-07-18 13:06:09,1374152769,55.21816,-9.97886,4,1,2013-07-18 13:00:00,1374152400,15.2,5,15.8,30,60,55.229,-9.98319999999998,34,48
90,2013-07-18 14:06:08,1374156368,55.23173,-10.17551,67,2,2013-07-18 14:00:00,1374156000,15.23,4,15.8,30,120,55.229,-9.98319999999998,34,48
91,2013-07-18 15:06:11,1374159971,55.24723,-9.98976,2,3,2013-07-18 15:00:00,1374159600,15.25,5,15.8,30,0,55.2258,-9.96439999999998,34,48
92,2013-07-18 16:06:09,1374163569,55.24723,-9.98976,1476,2,2013-07-18 16:00:00,1374163200,15.41,5,15.8,30,60,55.2258,-9.96439999999998,34,48
93,2013-07-18 17:06:20,1374167180,55.21816,-9.97886,7,2,2013-07-18 17:00:00,1374166800,15.33,5,15.8,30,120,55.2258,-9.96439999999998,34,48
94,2013-07-18 18:06:08,1374170768,55.21303,-10.04073,4,3,2013-07-18 18:00:00,1374170400,15.37,5,15.8,30,0,55.2266,-9.982,52,48
95,2013-07-18 19:06:09,1374174369,55.24723,-9.98976,6,4,2013-07-18 19:00:00,1374174000,15.42,5,15.8,30,60,55.2266,-9.982,52,48
96,2013-07-18 20:06:08,1374177968,55.24723,-9.98976,13,2,2013-07-18 20:00:00,1374177600,15.38,6,15.8,30,120,55.2266,-9.982,52,48
97,2013-07-18 21:06:13,1374181573,55.26257,-10.0517,4,9,2013-07-18 21:00:00,1374181200,15.37,5,15.8,30,0,55.2404,-9.99339999999998,34,44
98,2013-07-18 22:06:08,1374185168,55.21816,-9.97886,5,2,2013-07-18 22:00:00,1374184800,15.39,5,15.8,30,60,55.2404,-9.99339999999998,34,44
99,2013-07-18 23:06:11,1374188771,55.22326,-9.91696,4,7,2013-07-18 23:00:00,1374188400,15.4,4,15.8,30,120,55.2404,-9.99339999999998,34,44
100,2013-07-19 00:06:09,1374192369,55.21816,-9.97886,4,1,2013-07-19 00:00:00,1374192000,15.35,5,15.8,30,0,55.2596,-9.96519999999998,34,44
101,2013-07-19 01:06:08,1374195968,55.48648,-5.89963,265,2,2013-07-19 01:00:00,1374195600,15.33,4,15.8,30,60,55.2596,-9.96519999999998,34,44
102,2013-07-19 02:06:10,1374199570,55.22326,-9.91696,6,1,2013-07-19 02:00:00,1374199200,15.32,5,15.8,30,120,55.2596,-9.96519999999998,34,44
103,2013-07-19 03:06:08,1374203168,55.61557,-4.7742,340,1,2013-07-19 03:00:00,1374202800,15.3,5,15.8,30,0,55.2604,-9.9392,14,48
104,2013-07-19 04:06:09,1374206769,55.27281,-9.92779,3,1,2013-07-19 04:00:00,1374206400,15.26,4,15.6,30,60,55.2604,-9.9392,14,48
105,2013-07-19 05:06:08,1374210368,55.2677,-9.98976,4,1,2013-07-19 05:00:00,1374210000,15.23,6,15.6,30,120,55.2604,-9.9392,14,48
106,2013-07-19 06:06:12,1374213972,55.22326,-9.91696,3,4,2013-07-19 06:00:00,1374213600,15.21,6,15.6,30,0,55.2564,-9.947,64,48
107,2013-07-19 07:06:08,1374217568,55.24723,-9.98976,2,1,2013-07-19 07:00:00,1374217200,15.21,6,15.6,30,60,55.2564,-9.947,64,48
108,2013-07-19 08:06:12,1374221172,55.29679,-10.00068,11,2,2013-07-19 08:00:00,1374220800,15.19,5,15.6,30,120,55.2564,-9.947,64,48
109,2013-07-19 09:06:09,1374224769,55.25234,-9.92779,2,0,2013-07-19 09:00:00,1374224400,15.23,6,15.6,30,0,55.2604,-9.96779999999998,52,48
110,2013-07-19 10:06:11,1374228371,55.14867,-14.99616,325,2,2013-07-19 10:00:00,1374228000,15.27,5,15.6,30,60,55.2604,-9.96779999999998,52,48
111,2013-07-19 11:06:27,1374231987,55.29679,-10.00068,8,2,2013-07-19 11:00:00,1374231600,15.31,7,15.6,30,120,55.2604,-9.96779999999998,52,48
112,2013-07-19 12:06:18,1374235578,55.41364,-12.80987,192,2,2013-07-19 12:00:00,1374235200,15.36,5,15.6,30,0,55.272,-9.95659999999998,34,48
113,2013-07-19 13:06:08,1374239168,55.24723,-9.98976,6,2,2013-07-19 13:00:00,1374238800,15.48,5,15.6,30,60,55.272,-9.95659999999998,34,48
114,2013-07-19 14:06:08,1374242768,55.25234,-9.92779,3,2,2013-07-19 14:00:00,1374242400,15.56,6,15.6,30,120,55.272,-9.95659999999998,34,48
115,2013-07-19 15:06:13,1374246373,55.25234,-9.92779,2,6,2013-07-19 15:00:00,1374246000,15.64,5,15.6,30,0,55.2722,-9.9436,88,44
116,2013-07-19 16:06:16,1374249976,55.22371,-9.15234,82,2,2013-07-19 16:00:00,1374249600,15.68,6,15.6,30,60,55.2722,-9.9436,88,44
117,2013-07-19 17:06:08,1374253568,55.24723,-9.98976,2,3,2013-07-19 17:00:00,1374253200,15.68,6,15.6,30,120,55.2722,-9.9436,88,44
118,2013-07-19 18:06:09,1374257169,55.28729,-8.9759,94,2,2013-07-19 18:00:00,1374256800,15.69,7,15.6,30,0,55.271,-9.9564,94,48
119,2013-07-19 19:06:08,1374260768,55.29679,-10.00068,3,2,2013-07-19 19:00:00,1374260400,15.66,7,15.6,30,60,55.271,-9.9564,94,48
120,2013-07-19 20:06:09,1374264369,55.25234,-9.92779,13,9,2013-07-19 20:00:00,1374264000,15.64,7,15.6,30,120,55.271,-9.9564,94,48
121,2013-07-19 21:06:08,1374267968,55.3019,-9.93865,2,2,2013-07-19 21:00:00,1374267600,15.6,6,15.6,30,0,55.283,-9.96119999999999,118,48
122,2013-07-19 22:06:08,1374271568,55.25234,-9.92779,4,1,2013-07-19 22:00:00,1374271200,15.59,7,15.6,30,60,55.283,-9.96119999999999,118,48
123,2013-07-19 23:06:08,1374275168,55.24723,-9.98976,9,1,2013-07-19 23:00:00,1374274800,15.6,6,15.6,30,120,55.283,-9.96119999999999,118,48
124,2013-07-20 00:06:10,1374278770,55.27281,-9.92779,2,2,2013-07-20 00:00:00,1374278400,15.6,6,15.6,30,0,55.2918,-9.94199999999998,52,48
125,2013-07-20 01:06:11,1374282371,55.30698,-9.8766,4,1,2013-07-20 01:00:00,1374282000,15.61,5,15.6,30,60,55.2918,-9.94199999999998,52,48
126,2013-07-20 02:06:09,1374285969,55.27281,-9.92779,3,1,2013-07-20 02:00:00,1374285600,15.61,6,15.6,30,120,55.2918,-9.94199999999998,52,48
127,2013-07-20 03:06:08,1374289568,55.3019,-9.93865,7,1,2013-07-20 03:00:00,1374289200,15.6,6,15.6,30,0,55.2948,-9.91479999999999,56,48
128,2013-07-20 04:06:08,1374293168,55.27788,-9.86581,2,1,2013-07-20 04:00:00,1374292800,15.6,4,15.6,30,60,55.2948,-9.91479999999999,56,48
129,2013-07-20 05:06:10,1374296770,55.2677,-9.98976,3,8,2013-07-20 05:00:00,1374296400,15.6,6,15.6,30,120,55.2948,-9.91479999999999,56,48
130,2013-07-20 06:06:12,1374300372,55.27281,-9.92779,2,1,2013-07-20 06:00:00,1374300000,15.61,6,15.6,30,0,55.289,-9.9134,34,48
131,2013-07-20 07:06:08,1374303968,55.25741,-9.86581,15,1,2013-07-20 07:00:00,1374303600,15.67,5,15.6,30,60,55.289,-9.9134,34,48
132,2013-07-20 08:06:08,1374307568,55.30698,-9.8766,2,6,2013-07-20 08:00:00,1374307200,15.72,6,15.6,30,120,55.289,-9.9134,34,48
133,2013-07-20 09:06:08,1374311168,55.29679,-10.00068,2,1,2013-07-20 09:00:00,1374310800,15.91,7,15.6,30,0,55.2956,-9.93359999999998,36,48
134,2013-07-20 10:06:08,1374314768,55.27281,-9.92779,8,0,2013-07-20 10:00:00,1374314400,16.03,5,15.6,30,60,55.2956,-9.93359999999998,36,48
135,2013-07-20 11:06:08,1374318368,55.30698,-9.8766,3,2,2013-07-20 11:00:00,1374318000,16.4,5,15.6,30,120,55.2956,-9.93359999999998,36,48
136,2013-07-20 12:06:14,1374321974,55.35145,-9.94954,12,2,2013-07-20 12:00:00,1374321600,16.35,4,15.6,30,0,55.3002,-9.92659999999998,34,48
137,2013-07-20 13:06:08,1374325568,55.32235,-9.93865,6,2,2013-07-20 13:00:00,1374325200,16.2,5,15.6,30,60,55.3002,-9.92659999999998,34,48
138,2013-07-20 14:06:10,1374329170,55.49611,-14.32794,10,2,2013-07-20 14:00:00,1374328800,16.17,5,15.6,30,120,55.3002,-9.92659999999998,34,48
139,2013-07-20 15:06:08,1374332768,55.30698,-9.8766,3,2,2013-07-20 15:00:00,1374332400,16.45,7,15.6,30,0,55.302,-9.9014,34,48
140,2013-07-20 16:06:07,1374336367,55.3764,-11.37182,114,2,2013-07-20 16:00:00,1374336000,16.75,5,15.6,30,60,55.302,-9.9014,34,48
141,2013-07-20 17:06:08,1374339968,55.3019,-9.93865,2,2,2013-07-20 17:00:00,1374339600,16.91,5,15.6,30,120,55.302,-9.9014,34,48
142,2013-07-20 18:06:08,1374343568,55.22371,-9.15234,148,1,2013-07-20 18:00:00,1374343200,16.97,6,15.6,30,0,55.2962,-9.90719999999999,34,48
143,2013-07-20 19:06:08,1374347168,55.27788,-9.86581,2,1,2013-07-20 19:00:00,1374346800,17.14,5,15.6,30,60,55.2962,-9.90719999999999,34,48
144,2013-07-20 20:06:07,1374350767,55.24425,-8.45923,118,2,2013-07-20 20:00:00,1374350400,17.01,4,15.6,30,120,55.2962,-9.90719999999999,34,48
145,2013-07-20 21:06:08,1374354368,55.29679,-10.00068,2,1,2013-07-20 21:00:00,1374354000,17,5,15.6,30,0,55.3086,-9.94039999999998,14,44
146,2013-07-20 22:06:08,1374357968,55.3019,-9.93865,3,1,2013-07-20 22:00:00,1374357600,16.96,5,15.6,30,60,55.3086,-9.94039999999998,14,44
147,2013-07-20 23:06:08,1374361568,55.30698,-9.8766,2,1,2013-07-20 23:00:00,1374361200,16.98,5,15.6,30,120,55.3086,-9.94039999999998,14,44
148,2013-07-21 00:06:13,1374365173,55.3019,-9.93865,2,6,2013-07-21 00:00:00,1374364800,16.95,4,15.6,30,0,55.3264,-9.92319999999998,34,48
149,2013-07-21 01:06:07,1374368767,55.35654,-9.88742,23,2,2013-07-21 01:00:00,1374368400,16.78,5,15.6,30,60,55.3264,-9.92319999999998,34,48
150,2013-07-21 02:06:08,1374372368,55.30698,-9.8766,2,1,2013-07-21 02:00:00,1374372000,16.82,4,15.6,30,120,55.3264,-9.92319999999998,34,48
151,2013-07-21 03:06:13,1374375973,55.44108,-7.28968,177,7,2013-07-21 03:00:00,1374375600,16.74,5,15.6,30,0,55.3312,-9.881,12,48
152,2013-07-21 04:06:07,1374379567,55.3019,-9.93865,2,2,2013-07-21 04:00:00,1374379200,16.66,4,15.6,30,60,55.3312,-9.881,12,48
153,2013-07-21 05:06:07,1374383167,55.31204,-9.81452,3,1,2013-07-21 05:00:00,1374382800,16.46,5,15.6,30,120,55.3312,-9.881,12,48
154,2013-07-21 06:06:08,1374386768,55.31204,-9.81452,2,0,2013-07-21 06:00:00,1374386400,16.34,6,15.6,30,0,55.3164,-9.87,64,48
155,2013-07-21 07:06:12,1374390372,55.3019,-9.93865,3,2,2013-07-21 07:00:00,1374390000,16.37,6,15.6,30,60,55.3164,-9.87,64,48
156,2013-07-21 08:06:07,1374393967,55.27788,-9.86581,4,1,2013-07-21 08:00:00,1374393600,16.31,5,15.6,30,120,55.3164,-9.87,64,48
157,2013-07-21 09:06:08,1374397568,55.3019,-9.93865,4,0,2013-07-21 09:00:00,1374397200,16.35,5,15.6,30,0,55.315,-9.9144,82,44
158,2013-07-21 10:06:07,1374401167,55.35145,-9.94954,6,1,2013-07-21 10:00:00,1374400800,16.44,4,15.6,30,60,55.315,-9.9144,82,44
159,2013-07-21 11:06:11,1374404771,55.30698,-9.8766,2,2,2013-07-21 11:00:00,1374404400,16.57,4,15.6,30,120,55.315,-9.9144,82,44
160,2013-07-21 12:06:10,1374408370,55.35145,-9.94954,4,2,2013-07-21 12:00:00,1374408000,16.58,5,15.6,30,0,55.3386,-9.941,34,48
161,2013-07-21 13:06:07,1374411967,55.35145,-9.94954,4,2,2013-07-21 13:00:00,1374411600,16.71,6,15.6,30,60,55.3386,-9.941,34,48
162,2013-07-21 14:06:08,1374415568,55.60259,-14.37509,289,2,2013-07-21 14:00:00,1374415200,16.83,8,15.6,30,120,55.3386,-9.941,34,48
163,2013-07-21 15:06:07,1374419167,55.35145,-9.94954,2,2,2013-07-21 15:00:00,1374418800,16.92,6,15.6,30,0,55.3608,-9.89159999999998,52,48
164,2013-07-21 16:06:10,1374422770,55.44207,-11.84307,163,2,2013-07-21 16:00:00,1374422400,16.85,6,15.6,30,60,55.3608,-9.89159999999998,52,48
165,2013-07-21 17:06:08,1374426368,55.41114,-9.83605,9,2,2013-07-21 17:00:00,1374426000,16.78,6,15.6,30,120,55.3608,-9.89159999999998,52,48
166,2013-07-21 18:06:13,1374429973,55.38052,-10.66619,86,5,2013-07-21 18:00:00,1374429600,16.68,6,15.6,30,0,55.349,-9.85299999999998,64,48
167,2013-07-21 19:06:08,1374433568,55.3616,-9.82528,5,1,2013-07-21 19:00:00,1374433200,16.69,6,15.6,30,60,55.349,-9.85299999999998,64,48
168,2013-07-21 20:06:12,1374437172,55.36951,-10.7902,108,4,2013-07-21 20:00:00,1374436800,16.62,7,15.6,30,120,55.349,-9.85299999999998,64,48
169,2013-07-21 21:06:12,1374440772,55.35654,-9.88742,4,5,2013-07-21 21:00:00,1374440400,16.68,6,15.6,30,0,55.3372,-9.8886,60,44
170,2013-07-21 22:06:07,1374444367,55.3019,-9.93865,13,1,2013-07-21 22:00:00,1374444000,16.67,6,15.6,30,60,55.3372,-9.8886,60,44
171,2013-07-21 23:06:09,1374447969,55.35654,-9.88742,3,1,2013-07-21 23:00:00,1374447600,16.55,4,15.6,30,120,55.3372,-9.8886,60,44
172,2013-07-22 00:06:07,1374451567,55.35654,-9.88742,2,1,2013-07-22 00:00:00,1374451200,16.59,5,15.6,30,0,55.3634,-9.928,34,44
173,2013-07-22 01:06:07,1374455167,55.36508,-10.14685,72,2,2013-07-22 01:00:00,1374454800,16.53,5,15.6,30,60,55.3634,-9.928,34,44
174,2013-07-22 02:06:07,1374458767,55.38057,-9.96044,2,1,2013-07-22 02:00:00,1374458400,16.51,5,15.6,30,120,55.3634,-9.928,34,44
175,2013-07-22 03:06:08,1374462368,55.42034,-8.94307,142,1,2013-07-22 03:00:00,1374462000,16.51,4,15.6,30,0,55.3872,-9.88399999999999,12,48
176,2013-07-22 04:06:07,1374465967,55.3616,-9.82528,2,1,2013-07-22 04:00:00,1374465600,16.55,5,15.6,30,60,55.3872,-9.88399999999999,12,48
177,2013-07-22 05:06:09,1374469569,55.40607,-9.89826,7,1,2013-07-22 05:00:00,1374469200,16.39,6,15.6,30,120,55.3872,-9.88399999999999,12,48
178,2013-07-22 06:06:10,1374473170,55.38567,-9.89826,4,1,2013-07-22 06:00:00,1374472800,16.5,6,15.6,30,0,55.3722,-9.83619999999999,52,40
179,2013-07-22 07:06:07,1374476767,55.35654,-9.88742,5,1,2013-07-22 07:00:00,1374476400,16.5,5,15.6,30,60,55.3722,-9.83619999999999,52,40
180,2013-07-22 08:06:07,1374480367,55.3616,-9.82528,6,1,2013-07-22 08:00:00,1374480000,16.55,6,15.6,30,120,55.3722,-9.83619999999999,52,40
181,2013-07-22 09:06:09,1374483969,55.3616,-9.82528,3,1,2013-07-22 09:00:00,1374483600,16.65,5,15.6,30,0,55.3576,-9.85219999999998,64,48
182,2013-07-22 10:06:07,1374487567,55.3616,-9.82528,1,0,2013-07-22 10:00:00,1374487200,16.66,5,15.6,30,60,55.3576,-9.85219999999998,64,48
183,2013-07-22 11:06:07,1374491167,55.32743,-9.8766,7,2,2013-07-22 11:00:00,1374490800,16.62,5,15.6,30,120,55.3576,-9.85219999999998,64,48
184,2013-07-22 12:06:07,1374494767,55.35654,-9.88742,2,2,2013-07-22 12:00:00,1374494400,16.92,4,15.6,30,0,55.3638,-9.90039999999999,34,48
185,2013-07-22 13:06:07,1374498367,55.38057,-9.96044,1,2,2013-07-22 13:00:00,1374498000,16.95,5,15.6,30,60,55.3638,-9.90039999999999,34,48
186,2013-07-22 14:06:08,1374501968,55.40098,-9.96044,3,2,2013-07-22 14:00:00,1374501600,16.98,5,15.6,30,120,55.3638,-9.90039999999999,34,48
187,2013-07-22 15:06:11,1374505571,55.3616,-9.82528,2,4,2013-07-22 15:00:00,1374505200,16.98,5,15.6,30,0,55.3944,-9.88659999999999,36,48
188,2013-07-22 16:06:07,1374509167,55.38704,-9.76311,4,2,2013-07-22 16:00:00,1374508800,17.04,5,15.6,30,60,55.3944,-9.88659999999999,36,48
189,2013-07-22 17:06:07,1374512767,55.40607,-9.89826,2,2,2013-07-22 17:00:00,1374512400,17,5,15.6,30,120,55.3944,-9.88659999999999,36,48
190,2013-07-22 18:06:09,1374516369,55.5925,-13.12784,221,4,2013-07-22 18:00:00,1374516000,17,5,15.6,30,0,55.3998,-9.83159999999998,64,48
191,2013-07-22 19:06:09,1374519969,55.41114,-9.83605,3,3,2013-07-22 19:00:00,1374519600,16.93,5,15.6,30,60,55.3998,-9.83159999999998,64,48
192,2013-07-22 20:06:11,1374523571,55.39881,-10.34436,139,7,2013-07-22 20:00:00,1374523200,16.9,6,15.6,30,120,55.3998,-9.83159999999998,64,48
193,2013-07-22 21:06:07,1374527167,55.41618,-9.77382,2,2,2013-07-22 21:00:00,1374526800,16.88,6,15.6,30,0,55.3926,-9.83339999999998,66,44
194,2013-07-22 22:06:08,1374530768,55.3616,-9.82528,8,2,2013-07-22 22:00:00,1374530400,16.76,6,15.6,30,60,55.3926,-9.83339999999998,66,44
195,2013-07-22 23:06:07,1374534367,55.35654,-9.88742,6,1,2013-07-22 23:00:00,1374534000,16.7,5,15.6,30,120,55.3926,-9.83339999999998,66,44
196,2013-07-23 00:06:12,1374537972,55.3616,-9.82528,3,4,2013-07-23 00:00:00,1374537600,16.8,4,15.6,30,0,55.3946,-9.86419999999998,36,44
197,2013-07-23 01:06:16,1374541576,55.31439,-11.80428,143,3,2013-07-23 01:00:00,1374541200,16.58,5,15.6,30,60,55.3946,-9.86419999999998,36,44
198,2013-07-23 02:06:05,1374545165,55.35654,-9.88742,3,2,2013-07-23 02:00:00,1374544800,16.62,4,15.6,30,120,55.3946,-9.86419999999998,36,44
199,2013-07-23 03:06:11,1374548771,55.46994,-8.9529,98,2,2013-07-23 03:00:00,1374548400,16.58,5,15.6,30,0,55.4164,-9.85479999999998,8,48
200,2013-07-23 04:06:07,1374552367,55.44029,-9.84685,4,1,2013-07-23 04:00:00,1374552000,16.61,4,15.6,30,60,55.4164,-9.85479999999998,8,48
201,2013-07-23 05:06:21,1374555981,55.46331,-8.6308,99,1,2013-07-23 05:00:00,1374555600,16.6,5,15.6,30,120,55.4164,-9.85479999999998,8,48
202,2013-07-23 06:06:10,1374559570,55.41114,-9.83605,2,9,2013-07-23 06:00:00,1374559200,16.6,4,15.6,30,0,55.424,-9.81180000000001,36,48
203,2013-07-23 07:06:07,1374563167,55.52637,-7.69096,173,1,2013-07-23 07:00:00,1374562800,16.57,3,15.6,30,60,55.424,-9.81180000000001,36,48
204,2013-07-23 08:06:08,1374566768,55.41618,-9.77382,1,1,2013-07-23 08:00:00,1374566400,16.56,6,15.6,30,120,55.424,-9.81180000000001,36,48
205,2013-07-23 09:06:07,1374570367,55.68038,-5.60927,276,1,2013-07-23 09:00:00,1374570000,16.59,5,15.6,30,0,55.4194,-9.809,36,48
206,2013-07-23 10:06:08,1374573968,55.3616,-9.82528,5,1,2013-07-23 10:00:00,1374573600,16.59,4,15.6,30,60,55.4194,-9.809,36,48
207,2013-07-23 11:06:08,1374577568,55.40607,-9.89826,2,2,2013-07-23 11:00:00,1374577200,16.66,4,15.6,30,120,55.4194,-9.809,36,48
208,2013-07-23 12:06:07,1374581167,55.40607,-9.89826,2,2,2013-07-23 12:00:00,1374580800,16.67,6,15.6,30,0,55.4098,-9.84099999999998,36,48
209,2013-07-23 13:06:09,1374584769,55.44029,-9.84685,8,2,2013-07-23 13:00:00,1374584400,16.82,6,15.6,30,60,55.4098,-9.84099999999998,36,48
210,2013-07-23 14:06:11,1374588371,55.41114,-9.83605,3,3,2013-07-23 14:00:00,1374588000,17.03,5,15.6,30,120,55.4098,-9.84099999999998,36,48
211,2013-07-23 15:06:07,1374591967,55.44029,-9.84685,4,3,2013-07-23 15:00:00,1374591600,16.77,5,15.6,30,0,55.4222,-9.86199999999999,36,48
212,2013-07-23 16:06:06,1374595566,55.40607,-9.89826,3,3,2013-07-23 16:00:00,1374595200,16.81,5,15.6,30,60,55.4222,-9.86199999999999,36,48
213,2013-07-23 17:06:07,1374599167,55.44029,-9.84685,3,5,2013-07-23 17:00:00,1374598800,16.98,4,15.6,30,120,55.4222,-9.86199999999999,36,48
214,2013-07-23 18:06:07,1374602767,55.65701,-13.28057,233,2,2013-07-23 18:00:00,1374602400,16.81,4,15.6,30,0,55.4382,-9.83019999999999,36,48
215,2013-07-23 19:06:07,1374606367,55.41114,-9.83605,6,5,2013-07-23 19:00:00,1374606000,16.73,4,15.6,30,60,55.4382,-9.83019999999999,36,48
216,2013-07-23 20:06:07,1374609967,55.5875,-12.60453,191,3,2013-07-23 20:00:00,1374609600,16.6,4,15.6,30,120,55.4382,-9.83019999999999,36,48
217,2013-07-23 21:06:06,1374613566,55.44029,-9.84685,1,3,2013-07-23 21:00:00,1374613200,16.44,6,15.6,30,0,55.4392,-9.81119999999999,18,44
218,2013-07-23 22:06:07,1374617167,55.55521,-12.32941,178,3,2013-07-23 22:00:00,1374616800,16.34,6,15.6,30,60,55.4392,-9.81119999999999,18,44
219,2013-07-23 23:06:06,1374620766,55.41618,-9.77382,2,2,2013-07-23 23:00:00,1374620400,16.42,6,15.6,30,120,55.4392,-9.81119999999999,18,44
220,2013-07-24 00:06:06,1374624366,55.41114,-9.83605,3,2,2013-07-24 00:00:00,1374624000,16.49,7,15.6,30,0,55.4294,-9.82079999999999,66,44
221,2013-07-24 01:06:07,1374627967,55.41114,-9.83605,3,5,2013-07-24 01:00:00,1374627600,16.46,5,15.6,30,60,55.4294,-9.82079999999999,66,44
222,2013-07-24 02:06:09,1374631569,55.41618,-9.77382,2,1,2013-07-24 02:00:00,1374631200,16.49,7,15.6,30,120,55.4294,-9.82079999999999,66,44
223,2013-07-24 03:06:06,1374635166,55.36467,-11.49552,124,3,2013-07-24 03:00:00,1374634800,16.42,6,15.6,30,0,55.4336,-9.84059999999999,12,44
224,2013-07-24 04:06:11,1374638771,55.41114,-9.83605,2,5,2013-07-24 04:00:00,1374638400,16.55,5,15.6,30,60,55.4336,-9.84059999999999,12,44
225,2013-07-24 05:06:08,1374642368,55.44029,-9.84685,3,1,2013-07-24 05:00:00,1374642000,16.5,5,15.6,30,120,55.4336,-9.84059999999999,12,44
226,2013-07-24 06:06:09,1374645969,55.46571,-9.78456,2,1,2013-07-24 06:00:00,1374645600,16.42,5,15.6,30,0,55.4538,-9.8116,36,48
227,2013-07-24 07:06:07,1374649567,55.53477,-8.32718,115,1,2013-07-24 07:00:00,1374649200,16.45,5,15.6,30,60,55.4538,-9.8116,36,48
228,2013-07-24 08:06:06,1374653166,55.46067,-9.84685,3,1,2013-07-24 08:00:00,1374652800,16.39,8,15.6,30,120,55.4538,-9.8116,36,48
229,2013-07-24 09:06:07,1374656767,55.41114,-9.83605,13,0,2013-07-24 09:00:00,1374656400,16.29,6,15.6,30,0,55.4542,-9.7732,54,48
230,2013-07-24 10:06:07,1374660367,55.46571,-9.78456,4,1,2013-07-24 10:00:00,1374660000,16.18,5,15.6,30,60,55.4542,-9.7732,54,48
231,2013-07-24 11:06:11,1374663971,55.4332,-5.3204,292,2,2013-07-24 11:00:00,1374663600,16.16,7,15.6,30,120,55.4542,-9.7732,54,48
232,2013-07-24 12:06:15,1374667575,55.46067,-9.84685,4,2,2013-07-24 12:00:00,1374667200,16.19,8,15.6,30,0,55.4372,-9.79739999999998,96,48
233,2013-07-24 13:06:07,1374671167,55.41114,-9.83605,5,2,2013-07-24 13:00:00,1374670800,16.18,7,15.6,30,60,55.4372,-9.79739999999998,96,48
234,2013-07-24 14:06:09,1374674769,55.44534,-9.78456,2,2,2013-07-24 14:00:00,1374674400,16.19,7,15.6,30,120,55.4372,-9.79739999999998,96,48
235,2013-07-24 15:06:06,1374678366,55.44029,-9.84685,2,3,2013-07-24 15:00:00,1374678000,16.21,6,15.6,30,0,55.4428,-9.834,60,44
236,2013-07-24 16:06:09,1374681969,55.43522,-9.90912,12,3,2013-07-24 16:00:00,1374681600,16.23,5,15.6,30,60,55.4428,-9.834,60,44
237,2013-07-24 17:06:06,1374685566,55.49991,-9.73293,14,3,2013-07-24 17:00:00,1374685200,16.24,7,15.6,30,120,55.4428,-9.834,60,44
238,2013-07-24 18:06:06,1374689166,55.77064,-14.84099,326,3,2013-07-24 18:00:00,1374688800,16.29,5,15.6,30,0,55.4698,-9.81879999999998,90,48
239,2013-07-24 19:06:05,1374692765,55.46067,-9.84685,2,3,2013-07-24 19:00:00,1374692400,16.38,5,15.6,30,60,55.4698,-9.81879999999998,90,48
240,2013-07-24 20:06:06,1374696366,55.75534,-14.96428,338,3,2013-07-24 20:00:00,1374696000,16.31,5,15.6,30,120,55.4698,-9.81879999999998,90,48
241,2013-07-24 21:06:06,1374699966,55.49488,-9.79531,5,4,2013-07-24 21:00:00,1374699600,16.33,5,15.6,30,0,55.4782,-9.7714,36,48
242,2013-07-24 22:06:06,1374703566,55.46571,-9.78456,2,2,2013-07-24 22:00:00,1374703200,16.28,7,15.6,30,60,55.4782,-9.7714,36,48
243,2013-07-24 23:06:08,1374707168,55.47073,-9.72224,3,1,2013-07-24 23:00:00,1374706800,16.31,6,15.6,30,120,55.4782,-9.7714,36,48
244,2013-07-25 00:06:06,1374710766,55.41618,-9.77382,3,1,2013-07-25 00:00:00,1374710400,16.34,5,15.6,30,0,55.4564,-9.76859999999999,36,48
245,2013-07-25 01:06:06,1374714366,55.37023,-14.35787,298,1,2013-07-25 01:00:00,1374714000,16.29,6,15.6,30,60,55.4564,-9.76859999999999,36,48
246,2013-07-25 02:06:06,1374717966,55.44029,-9.84685,2,2,2013-07-25 02:00:00,1374717600,16.24,5,15.6,30,120,55.4564,-9.76859999999999,36,48
247,2013-07-25 03:06:06,1374721566,55.28197,-13.08904,227,1,2013-07-25 03:00:00,1374721200,16.23,6,15.6,30,0,55.4496,-9.79419999999999,10,32
248,2013-07-25 04:06:06,1374725166,55.46571,-9.78456,3,1,2013-07-25 04:00:00,1374724800,16.22,5,15.6,30,60,55.4496,-9.79419999999999,10,32